Regional Weather Roundup
Issued by NWS Cleveland, OH

Home | Current Version | Previous Version | Text Only | Print | Product List | Glossary Off
Versions: 1 2 3 4 5 6 7 8 9 10 11 12 13 14 15 16 17 18 19 20 21 22 23 24 25 26 27 28 29 30 31 32 33 34 35 36 37 38 39 40 41 42 43 44 45 46 47 48 49 50

000
ASUS41 KCLE 292202
RWRCLE
OHIO REGIONAL WEATHER ROUNDUP
NATIONAL WEATHER SERVICE CLEVELAND, OH
500 PM EST THU JAN 29 2015

NOTE: "FAIR" INDICATES FEW OR NO CLOUDS BELOW 12,000 FEET WITH NO
SIGNIFICANT WEATHER AND/OR OBSTRUCTIONS TO VISIBILITY.

OHZ001>008-015>018-024>027-034-035-043-044-292300-
   NORTHWEST OHIO

CITY           SKY/WX    TMP DP  RH WIND       PRES   REMARKS
DEFIANCE       CLOUDY    35  30  82 W10       29.89R WCI  27
FINDLAY        LGT SNOW  35  31  85 W14       29.85R FOG     WCI  26
TOLEDO EXPRESS LGT SNOW  33  30  88 NW10      29.85R FOG     WCI  25
TOLEDO EXEC    LGT SNOW  33  30  88 NW15      29.85R FOG     WCI  23
LIMA           CLOUDY    35  32  88 W17       29.88R FOG     WCI  25
$$

OHZ009>014-019>023-028>033-038-089-292300-
   NORTHEAST OHIO

CITY           SKY/WX    TMP DP  RH WIND       PRES   REMARKS
CLE-HOPKINS    LGT RAIN  36  33  89 W12       29.78R FOG
CLE-LAKEFRONT  LGT RAIN  36  33  89 W13       29.76R FOG
CUY CO. ARPT   LGT RAIN  37  34  87 SW14      29.75  FOG
LORAIN-ELYRIA  MIX PCPN  35  33  92 NW16G23   29.78R FOG     WCI  25
ASHTABULA      FLURRIES  34  32  92 SW12      29.74S WCI  25
AKRON-CANTON   CLOUDY    37  33  85 SW13      29.75R FOG
WOOSTER        MIX PCPN  35  34  96 SW7       29.77R FOG     WCI  29
MANSFIELD      CLOUDY    36  35  96 W14G21    29.77R FOG
YOUNGSTOWN     LGT SNOW  35  33  92 S6        29.74S FOG
$$

OHZ042-051>053-060>062-070>072-077>081-292300-
  SOUTHWEST OHIO

CITY           SKY/WX    TMP DP  RH WIND       PRES   REMARKS
CINC-COVINGTON CLOUDY    36  32  85 W21G29    30.00R
CINC-LUNKEN    CLOUDY    38  32  79 W18G31    30.02R
HAMILTON       CLOUDY    37  32  82 W10G21    30.01R
DAYTON         CLOUDY    35  31  85 W21G31    29.94R WCI  24
WRIGHT-PAT AFB NOT AVBL
DAYTON GENERAL CLOUDY    36  32  85 W14G22    29.95R FOG
WILMINGTON     CLOUDY    36  30  79 W22G32    29.93R
$$

OHZ036-037-039>041-045>050-054>059-063>069-073>076-082>088-292300-
  CENTRAL AND SOUTHEAST OHIO

CITY           SKY/WX    TMP DP  RH WIND       PRES   REMARKS
COLUMBUS       CLOUDY    37  32  82 W20G29    29.87R
OSU AIRPORT    CLOUDY    36  32  85 W16G33    29.87R
BOLTON FIELD   CLOUDY    36  34  93 SW16G28   29.89R FOG
RICKENBACK AFB CLOUDY    36  33  88 W18       29.88R
NEWARK         LGT RAIN  37  35  92 W15       29.84R FOG
MARION         CLOUDY    35  32  88 W18       29.84R FOG     WCI  24
LANCASTER      CLOUDY    38  34  85 W24G33    29.88R FOG
ZANESVILLE     LGT RAIN  39  36  89 W18       29.82R FOG
NEW PHILLY     CLOUDY    38  35  89 SW5       29.80R FOG
$$



USA.gov is the U.S. government's official web portal to all federal, state and local government web resources and services.